Regional Weather Roundup
Issued by NWS New Orleans/Baton Rouge, LA

Home | Current Version | Previous Version | Text Only | Print | Product List | Glossary Off
Versions: 1 2 3 4 5 6 7 8 9 10 11 12 13 14 15 16 17 18 19 20 21 22 23 24 25 26 27 28 29 30 31 32 33 34 35 36 37 38 39 40 41 42 43 44 45 46 47 48 49 50

875
ASUS44 KLIX 201910
RWRLIX
NEW ORLEANS REGIONAL WEATHER ROUNDUP
NATIONAL WEATHER SERVICE NEW ORLEANS LA
200 PM CDT MON OCT 20 2014

NOTE: "FAIR" INDICATES FEW OR NO CLOUDS BELOW 12,000 FEET WITH NO
      SIGNIFICANT WEATHER AND/OR OBSTRUCTIONS TO VISIBILITY.
      SKY/WX - SKY CONDITION AND SIGNIFICANT WEATHER.
      TMP - AIR TEMPERATURE.     DP    - DEWPOINT TEMPERATURE.
      RH  - RELATIVE HUMIDITY.   PRES  - PRESSURE.
      HI  - HEAT INDEX.          WCI   - WIND CHILL INDEX.

*  THESE STATIONS ARE NOT NWS OR FAA STATIONS AND ARE NOT UNDER
   NWS QUALITY CONTROL.

LAZ038-040-048-061>063-065>067-069-202000-
SOUTHEAST LOUISIANA

CITY           SKY/WX    TMP DP  RH WIND       PRES   REMARKS
N.O. AUDUBON     N/A     81  61  50 MISG        N/A
N.O. INTL ARPT MOSUNNY   78  58  49 N9        30.01F
N.O. LAKEFRONT SUNNY     77  58  51 N9        30.02F
N.O. DOWNTOWN*   N/A     79  54  41 N5        30.02F
SLIDELL        SUNNY     79  53  40 NE7       30.01F
BATON ROUGE    MOSUNNY   76  52  43 NE6       30.03F
BOOTHVILLE     MOSUNNY   76  65  68 NE9       30.00F
BELLE CHASSE   PTSUNNY   79  58  48 CALM      30.00F
BOGALUSA*        N/A     77  45  32 CALM      30.04F
NEW ROADS*       N/A     74  54  48 CALM      30.03F
GONZALES*        N/A     78  54  43 CALM      30.01F
HAMMOND*       MOSUNNY   79  46  31 CALM      30.04F
HOUMA*         SUNNY     81  57  44 N9        30.00F
PORT FOURCHON* CLEAR     77  61  57 NE8       30.03F

$$

MSZ070-080>082-202000-
SOUTHERN MISSISSIPPI

CITY           SKY/WX    TMP DP  RH WIND       PRES   REMARKS
MCCOMB         MOSUNNY   74  48  39 NE3       30.04F
GULFPORT       MOSUNNY   77  49  37 CALM      30.01F
BILOXI         MOSUNNY   78  49  36 SW5       30.01F
PASCAGOULA     MOSUNNY   79  51  37 CALM      30.01F
STENNIS ARPT*  SUNNY     77  46  33 VRB5      30.02F

$$

COASTAL OBSERVATIONS
LAKE AND NEARSHORE STATIONS

STATION/POSITION TIME  TEMP    WIND        PRES    WAVE
                       AIR SEA DIR/SP/G            HT/PER
                 (UTC) (F)     (DEG/KT/KT) (MB)    (FT/S)
PASCAGOULA       1900   76     210/  6/  8 1015.7
WAVELAND YACHT   1900   77      60/  1/  2 1015.7
GRAND ISLE       1900   77 78   70/  4/  8 1016.5
SOUTHWEST PASS   1900   85 85              1015.9
NEW CANAL        1900   72 72   20/  8/ 10 1016.9
SHELL BEACH      1900   71 70   10/ 11/ 12 1016.3

OFFSHORE STATIONS

STATION/POSITION TIME  TEMP    WIND        PRES    WAVE
                       AIR SEA DIR/SP/G            HT/PER
                 (UTC) (F)     (DEG/KT/KT) (MB)    (FT/S)
64 S DAUPHIN ISL 1828   76 81   50/  2/  4 1016.2    1/ 5

$$




USA.gov is the U.S. government's official web portal to all federal, state and local government web resources and services.